Date,TemperatureHighF,TemperatureAvgF,TemperatureLowF,DewpointHighF,DewpointAvgF,DewpointLowF,HumidityHigh,HumidityAvg,HumidityLow,PressureMaxIn,PressureMinIn,WindSpeedMaxMPH,WindSpeedAvgMPH,GustSpeedMaxMPH,PrecipitationSumIn
2013-3-1,48.0,37.0,35.1,42.4,33.5,32.0,89,87,81,30.51,30.48,2,0,5,0.00
2013-3-2,48.4,39.7,31.6,38.7,35.1,29.3,92,84,67,30.50,30.32,9,1,13,0.01
2013-3-3,49.5,41.8,35.2,40.1,36.8,31.8,91,83,68,30.32,30.04,14,3,19,0.00
2013-3-4,44.1,41.1,38.5,40.8,37.8,34.3,91,88,85,30.03,29.71,13,4,16,0.00
2013-3-5,50.2,42.6,34.5,44.2,39.0,32.4,94,87,75,29.71,29.51,14,4,18,0.10
2013-3-6,50.7,46.3,42.3,48.6,44.9,40.6,97,95,92,29.51,29.38,20,9,22,0.13
2013-3-7,51.3,48.4,46.6,49.5,47.2,45.9,97,96,92,29.38,29.18,22,10,25,0.05
2013-3-8,58.3,51.8,47.5,54.1,49.0,45.0,97,91,79,29.41,29.17,19,9,26,0.02
2013-3-9,58.8,49.4,42.6,50.0,46.0,39.4,94,88,68,29.65,29.38,27,12,34,0.02
2013-3-10,43.3,40.4,33.6,39.4,35.0,26.8,89,81,67,29.97,29.64,29,15,40,0.00
2013-3-11,41.4,33.5,28.9,27.0,23.8,18.1,79,68,41,30.17,29.97,26,10,32,0.00
2013-3-12,45.5,34.9,24.1,37.2,27.6,19.4,92,76,55,30.19,30.07,14,4,21,0.00
2013-3-13,50.5,40.0,29.8,43.9,35.8,28.4,95,86,67,30.15,30.04,14,3,21,0.03
2013-3-14,50.4,43.5,32.9,45.0,39.9,31.1,94,87,74,30.16,29.68,15,5,24,0.07
2013-3-15,49.3,43.1,34.2,43.7,39.6,32.7,95,88,73,29.67,29.34,22,4,25,0.28
2013-3-16,49.5,38.3,30.0,40.8,34.0,28.8,96,85,62,29.40,29.30,16,2,18,0.01
2013-3-17,48.0,40.1,31.3,41.2,36.4,29.7,94,87,73,29.37,29.19,21,4,29,0.04
2013-3-18,48.0,39.8,31.5,41.2,35.9,30.2,96,86,65,29.50,29.22,13,3,19,0.00
2013-3-19,42.4,38.0,32.7,37.8,34.0,30.0,90,85,79,29.58,29.50,16,5,19,0.01
2013-3-20,48.9,39.5,31.3,38.3,34.0,29.3,94,81,61,29.83,29.58,8,2,11,0.00
2013-3-21,43.9,40.8,34.2,41.9,37.9,31.3,95,89,82,29.81,29.35,34,16,44,0.07
2013-3-22,49.3,46.4,43.3,48.0,45.0,42.1,97,95,92,29.55,29.28,34,15,46,0.12
2013-3-23,46.6,42.8,39.4,43.9,39.8,35.6,95,89,82,29.86,29.56,26,13,32,0.00
2013-3-24,39.6,37.9,36.7,35.6,33.2,31.5,88,83,76,30.03,29.86,22,12,28,0.00
2013-3-25,44.2,37.8,33.1,32.9,29.9,27.9,85,73,60,30.11,30.03,30,11,32,0.00
2013-3-26,41.7,35.9,32.4,34.9,30.8,28.2,89,82,70,30.12,30.04,20,6,21,0.00
2013-3-27,44.4,35.5,30.7,34.5,30.3,27.3,93,82,64,30.06,30.01,16,6,22,0.00
2013-3-28,44.2,35.1,28.6,33.1,28.5,26.1,93,78,54,30.04,29.85,22,8,30,0.01
2013-3-29,45.9,38.1,31.3,30.9,28.6,25.5,82,69,54,29.85,29.78,29,10,35,0.00
2013-3-30,48.9,38.7,30.7,32.4,28.8,25.5,82,68,48,29.93,29.85,24,6,25,0.00
2013-3-31,45.1,39.3,34.7,37.9,33.3,28.2,86,79,68,29.87,29.74,24,11,31,0.00